| time (UTC) | temp F | wind direction | speed MPH | gust MPH | rain 1hr in | rain 24hr in | rain mn in | humidity % | barometer mb |
| 20260901065503 | 62 | 220 | 2.0 | 9.0 | 0.00 | 0.14 | 0.00 | 97 | 1018.2 |
| 20260901065217 | 62 | 205 | 2.0 | 6.0 | 0.00 | 0.14 | 0.00 | 97 | 1018.2 |
| 20260901064718 | 61 | 184 | 3.0 | 6.0 | 0.00 | 0.14 | 0.00 | 97 | 1018.1 |
| 20260901064005 | 61 | 169 | 2.0 | 8.0 | 0.00 | 0.14 | 0.00 | 97 | 1018.0 |
| 20260901063505 | 61 | 175 | 2.0 | 6.0 | 0.00 | 0.14 | 0.00 | 98 | 1017.9 |
| 20260901063003 | 60 | 179 | 1.0 | 5.0 | 0.00 | 0.14 | 0.00 | 97 | 1017.9 |
| 20260901062503 | 60 | 172 | 2.0 | 6.0 | 0.00 | 0.14 | 0.00 | 97 | 1017.9 |
| 20260901062219 | 60 | 173 | 2.0 | 6.0 | 0.00 | 0.14 | 0.00 | 97 | 1017.9 |
| 20260901061504 | 60 | 194 | 1.0 | 5.0 | 0.00 | 0.14 | 0.00 | 97 | 1017.8 |
| 20260901061219 | 60 | 196 | 1.0 | 4.0 | 0.00 | 0.14 | 0.00 | 97 | 1017.7 |
| 20260901060718 | 60 | 197 | 1.0 | 4.0 | 0.00 | 0.14 | 0.00 | 97 | 1017.7 |
| 20260901060220 | 59 | 198 | 1.0 | 4.0 | 0.00 | 0.14 | 0.00 | 97 | 1017.7 |
| 20260901055505 | 59 | 213 | 1.0 | 4.0 | 0.00 | 0.14 | 0.00 | 97 | 1017.6 |
| 20260901055005 | 59 | 226 | 1.0 | 4.0 | 0.00 | 0.14 | 0.00 | 97 | 1017.7 |
| 20260901054718 | 59 | 226 | 1.0 | 4.0 | 0.00 | 0.14 | 0.00 | 97 | 1017.6 |
| 20260901054220 | 59 | 216 | 1.0 | 4.0 | 0.00 | 0.14 | 0.00 | 97 | 1017.6 |
| 20260901053506 | 58 | 191 | 0.0 | 3.0 | 0.00 | 0.14 | 0.00 | 97 | 1017.6 |
| 20260901053005 | 58 | 0 | 0.0 | 0.0 | 0.00 | 0.14 | 0.00 | 97 | 1017.6 |
| 20260901052504 | 58 | 236 | 0.0 | 1.0 | 0.00 | 0.14 | 0.00 | 97 | 1017.6 |
| 20260901052004 | 58 | 236 | 0.0 | 1.0 | 0.00 | 0.14 | 0.00 | 97 | 1017.6 |
| 20260901051717 | 58 | 236 | 0.0 | 2.0 | 0.00 | 0.14 | 0.00 | 97 | 1017.5 |
| 20260901051218 | 58 | 236 | 0.0 | 2.0 | 0.00 | 0.14 | 0.00 | 97 | 1017.4 |
| 20260901050505 | 58 | 236 | 0.0 | 3.0 | 0.00 | 0.14 | 0.00 | 97 | 1017.4 |
| 20260901050003 | 58 | 236 | 1.0 | 3.0 | 0.00 | 0.14 | 0.00 | 97 | 1017.4 |
| 20260901045504 | 58 | 236 | 1.0 | 4.0 | 0.00 | 0.14 | 0.00 | 97 | 1017.2 |
| 20260901045003 | 58 | 236 | 1.0 | 4.0 | 0.00 | 0.14 | 0.00 | 97 | 1017.2 |
| 20260901044505 | 58 | 235 | 1.0 | 3.0 | 0.00 | 0.14 | 0.00 | 97 | 1017.2 |
| 20260901044003 | 58 | 235 | 1.0 | 3.0 | 0.00 | 0.14 | 0.00 | 97 | 1017.3 |
| 20260901043503 | 58 | 235 | 1.0 | 3.0 | 0.00 | 0.14 | 0.00 | 97 | 1017.2 |
| 20260901043005 | 58 | 235 | 1.0 | 3.0 | 0.00 | 0.14 | 0.00 | 96 | 1017.1 |
| 20260901042506 | 58 | 235 | 1.0 | 3.0 | 0.00 | 0.14 | 0.00 | 96 | 1017.1 |
| 20260901042005 | 58 | 235 | 0.0 | 2.0 | 0.00 | 0.14 | 0.00 | 96 | 1017.0 |
| 20260901041717 | 58 | 235 | 0.0 | 3.0 | 0.00 | 0.14 | 0.00 | 96 | 1016.9 |
| 20260901041006 | 58 | 235 | 1.0 | 3.0 | 0.00 | 0.14 | 0.00 | 96 | 1017.0 |
| 20260901040503 | 58 | 235 | 1.0 | 5.0 | 0.00 | 0.14 | 0.00 | 96 | 1017.0 |
| 20260901040003 | 59 | 223 | 1.0 | 5.0 | 0.00 | 0.14 | 0.00 | 96 | 1017.0 |
| 20260901035717 | 59 | 216 | 2.0 | 5.0 | 0.00 | 0.14 | 0.00 | 96 | 1017.0 |
| 20260901035005 | 59 | 198 | 1.0 | 3.0 | 0.00 | 0.14 | 0.00 | 96 | 1016.9 |
| 20260901034505 | 59 | 202 | 1.0 | 3.0 | 0.00 | 0.14 | 0.00 | 96 | 1016.9 |
| 20260901034005 | 59 | 201 | 1.0 | 4.0 | 0.00 | 0.14 | 0.00 | 96 | 1016.9 |
| 20260901033719 | 59 | 183 | 1.0 | 4.0 | 0.00 | 0.14 | 0.00 | 96 | 1016.9 |
| 20260901033005 | 59 | 157 | 1.0 | 3.0 | 0.00 | 0.14 | 0.00 | 96 | 1016.9 |
| 20260901032504 | 59 | 193 | 1.0 | 4.0 | 0.00 | 0.14 | 0.00 | 96 | 1016.9 |
| 20260901032003 | 59 | 214 | 1.0 | 4.0 | 0.00 | 0.14 | 0.00 | 96 | 1016.8 |
| 20260901031505 | 59 | 208 | 1.0 | 5.0 | 0.00 | 0.14 | 0.00 | 96 | 1016.8 |
| 20260901031219 | 59 | 216 | 1.0 | 5.0 | 0.00 | 0.14 | 0.00 | 96 | 1016.8 |
| 20260901030503 | 59 | 235 | 1.0 | 5.0 | 0.00 | 0.14 | 0.00 | 96 | 1016.6 |
| 20260901030003 | 59 | 225 | 1.0 | 5.0 | 0.00 | 0.14 | 0.00 | 96 | 1016.7 |
| 20260901025503 | 59 | 207 | 1.0 | 3.0 | 0.00 | 0.14 | 0.00 | 96 | 1016.7 |
| 20260901025005 | 59 | 200 | 1.0 | 3.0 | 0.00 | 0.14 | 0.00 | 96 | 1016.7 |
| 20260901024503 | 59 | 200 | 1.0 | 3.0 | 0.00 | 0.14 | 0.00 | 95 | 1016.6 |
| 20260901024217 | 59 | 200 | 1.0 | 3.0 | 0.00 | 0.14 | 0.00 | 96 | 1016.5 |
| 20260901023503 | 59 | 200 | 1.0 | 3.0 | 0.00 | 0.14 | 0.00 | 96 | 1016.6 |
| 20260901023005 | 59 | 200 | 0.0 | 3.0 | 0.00 | 0.14 | 0.00 | 96 | 1016.5 |
| 20260901022503 | 59 | 0 | 0.0 | 0.0 | 0.00 | 0.14 | 0.00 | 95 | 1016.6 |
| 20260901022003 | 59 | 0 | 0.0 | 0.0 | 0.00 | 0.14 | 0.00 | 95 | 1016.6 |
| 20260901021718 | 59 | 0 | 0.0 | 0.0 | 0.00 | 0.14 | 0.00 | 95 | 1016.6 |
| 20260901021006 | 59 | 215 | 1.0 | 3.0 | 0.00 | 0.14 | 0.00 | 95 | 1016.7 |
| 20260901020505 | 59 | 215 | 1.0 | 3.0 | 0.00 | 0.14 | 0.00 | 95 | 1016.6 |
| 20260901020003 | 59 | 215 | 0.0 | 2.0 | 0.00 | 0.14 | 0.00 | 95 | 1016.7 |
| 20260901015503 | 59 | 215 | 0.0 | 2.0 | 0.00 | 0.14 | 0.00 | 95 | 1016.5 |
| 20260901015003 | 59 | 205 | 0.0 | 3.0 | 0.00 | 0.14 | 0.00 | 95 | 1016.5 |
| 20260901014503 | 60 | 205 | 1.0 | 3.0 | 0.00 | 0.14 | 0.00 | 95 | 1016.5 |
| 20260901014004 | 60 | 201 | 1.0 | 4.0 | 0.00 | 0.14 | 0.00 | 95 | 1016.4 |
| 20260901013506 | 60 | 186 | 1.0 | 4.0 | 0.00 | 0.14 | 0.00 | 95 | 1016.4 |
| 20260901013217 | 60 | 170 | 1.0 | 4.0 | 0.00 | 0.14 | 0.00 | 95 | 1016.3 |
| 20260901012503 | 60 | 173 | 1.0 | 5.0 | 0.00 | 0.14 | 0.00 | 95 | 1016.4 |
| 20260901012003 | 60 | 181 | 2.0 | 5.0 | 0.00 | 0.14 | 0.00 | 95 | 1016.4 |
| 20260901011718 | 60 | 180 | 2.0 | 5.0 | 0.00 | 0.14 | 0.00 | 95 | 1016.4 |
| 20260901011008 | 60 | 170 | 1.0 | 5.0 | 0.00 | 0.14 | 0.00 | 95 | 1016.4 |
| 20260901010718 | 60 | 170 | 2.0 | 5.0 | 0.00 | 0.14 | 0.00 | 95 | 1016.4 |
| 20260901010219 | 60 | 173 | 1.0 | 5.0 | 0.00 | 0.14 | 0.00 | 95 | 1016.3 |
| 20260901005720 | 60 | 167 | 2.0 | 5.0 | 0.00 | 0.14 | 0.00 | 95 | 1016.3 |
| 20260901005004 | 60 | 170 | 2.0 | 5.0 | 0.00 | 0.14 | 0.00 | 95 | 1016.3 |
| 20260901004503 | 60 | 177 | 1.0 | 5.0 | 0.00 | 0.14 | 0.00 | 95 | 1016.3 |
| 20260901004003 | 60 | 183 | 1.0 | 7.0 | 0.00 | 0.14 | 0.00 | 95 | 1016.3 |
| 20260901003717 | 60 | 176 | 1.0 | 7.0 | 0.00 | 0.14 | 0.00 | 95 | 1016.3 |
| 20260901003003 | 60 | 184 | 2.0 | 7.0 | 0.00 | 0.14 | 0.00 | 95 | 1016.2 |
| 20260901002505 | 60 | 192 | 2.0 | 7.0 | 0.00 | 0.14 | 0.00 | 95 | 1016.1 |
| 20260901002003 | 60 | 179 | 2.0 | 6.0 | 0.00 | 0.14 | 0.00 | 95 | 1016.2 |
| 20260901001503 | 60 | 178 | 2.0 | 6.0 | 0.00 | 0.14 | 0.00 | 95 | 1016.1 |
| 20260901001005 | 60 | 187 | 2.0 | 5.0 | 0.00 | 0.14 | 0.00 | 95 | 1016.2 |
| 20260901000503 | 60 | 187 | 2.0 | 6.0 | 0.00 | 0.14 | 0.00 | 95 | 1016.2 |
| 20260901000003 | 59 | 209 | 2.0 | 6.0 | 0.00 | 0.14 | 0.00 | 95 | 1016.2 |
| 20260831235505 | 59 | 216 | 2.0 | 6.0 | 0.00 | 0.14 | 0.00 | 95 | 1016.2 |
| 20260831235005 | 59 | 215 | 2.0 | 5.0 | 0.00 | 0.14 | 0.00 | 95 | 1016.2 |
| 20260831234717 | 59 | 221 | 2.0 | 4.0 | 0.00 | 0.14 | 0.00 | 95 | 1016.1 |
| 20260831234218 | 59 | 202 | 1.0 | 4.0 | 0.00 | 0.14 | 0.00 | 95 | 1016.2 |
| 20260831233503 | 59 | 183 | 2.0 | 5.0 | 0.00 | 0.14 | 0.00 | 95 | 1016.2 |
| 20260831233008 | 59 | 177 | 1.0 | 4.0 | 0.00 | 0.14 | 0.00 | 94 | 1016.2 |
| 20260831232503 | 59 | 198 | 1.0 | 4.0 | 0.00 | 0.14 | 0.00 | 94 | 1016.1 |
| 20260831232006 | 58 | 226 | 1.0 | 3.0 | 0.00 | 0.14 | 0.00 | 94 | 1016.0 |
| 20260831231505 | 58 | 221 | 1.0 | 4.0 | 0.00 | 0.14 | 0.00 | 94 | 1016.1 |
| 20260831231003 | 58 | 216 | 1.0 | 4.0 | 0.00 | 0.14 | 0.00 | 94 | 1016.0 |
| 20260831230504 | 58 | 224 | 1.0 | 4.0 | 0.00 | 0.14 | 0.00 | 94 | 1016.1 |
| 20260831230005 | 58 | 223 | 1.0 | 5.0 | 0.00 | 0.14 | 0.00 | 94 | 1016.1 |
| 20260831225505 | 59 | 221 | 1.0 | 5.0 | 0.00 | 0.14 | 0.00 | 94 | 1016.0 |
| 20260831225218 | 59 | 218 | 1.0 | 5.0 | 0.00 | 0.14 | 0.00 | 94 | 1016.1 |
| 20260831224503 | 59 | 170 | 1.0 | 5.0 | 0.00 | 0.14 | 0.00 | 94 | 1016.0 |
| 20260831224218 | 59 | 172 | 1.0 | 5.0 | 0.00 | 0.14 | 0.00 | 94 | 1015.9 |
| 20260831223503 | 59 | 205 | 1.0 | 5.0 | 0.00 | 0.14 | 0.00 | 94 | 1015.9 |
| 20260831223005 | 59 | 200 | 0.0 | 3.0 | 0.00 | 0.14 | 0.00 | 94 | 1016.0 |
| 20260831222504 | 59 | 221 | 0.0 | 3.0 | 0.00 | 0.14 | 0.00 | 94 | 1015.9 |
| 20260831222003 | 59 | 216 | 1.0 | 4.0 | 0.00 | 0.14 | 0.00 | 94 | 1016.0 |
| 20260831221505 | 59 | 222 | 2.0 | 5.0 | 0.00 | 0.14 | 0.00 | 94 | 1016.0 |
| 20260831221218 | 59 | 224 | 2.0 | 5.0 | 0.00 | 0.14 | 0.00 | 94 | 1015.9 |
| 20260831220505 | 59 | 229 | 2.0 | 7.0 | 0.00 | 0.14 | 0.00 | 94 | 1015.8 |
| 20260831220005 | 59 | 236 | 2.0 | 7.0 | 0.00 | 0.14 | 0.00 | 94 | 1015.8 |
| 20260831215503 | 59 | 235 | 1.0 | 5.0 | 0.00 | 0.14 | 0.14 | 93 | 1015.8 |
| 20260831215005 | 59 | 225 | 2.0 | 4.0 | 0.00 | 0.14 | 0.14 | 93 | 1015.8 |
| 20260831214503 | 59 | 228 | 2.0 | 4.0 | 0.00 | 0.14 | 0.14 | 93 | 1015.8 |
| 20260831214003 | 59 | 230 | 1.0 | 4.0 | 0.00 | 0.14 | 0.14 | 93 | 1015.7 |
| 20260831213506 | 59 | 226 | 1.0 | 4.0 | 0.00 | 0.14 | 0.14 | 93 | 1015.7 |
| 20260831213005 | 59 | 233 | 2.0 | 6.0 | 0.00 | 0.14 | 0.14 | 93 | 1015.6 |
| 20260831212505 | 59 | 243 | 1.0 | 6.0 | 0.00 | 0.14 | 0.14 | 93 | 1015.7 |
| 20260831212003 | 59 | 249 | 1.0 | 5.0 | 0.00 | 0.14 | 0.14 | 92 | 1015.6 |
| 20260831211503 | 60 | 242 | 1.0 | 3.0 | 0.00 | 0.14 | 0.14 | 93 | 1015.5 |
| 20260831211217 | 60 | 203 | 1.0 | 3.0 | 0.00 | 0.14 | 0.14 | 93 | 1015.5 |
| 20260831210503 | 60 | 153 | 1.0 | 3.0 | 0.00 | 0.14 | 0.14 | 93 | 1015.4 |
| 20260831210221 | 60 | 164 | 1.0 | 3.0 | 0.00 | 0.14 | 0.14 | 93 | 1015.4 |
| 20260831205505 | 60 | 250 | 1.0 | 3.0 | 0.00 | 0.14 | 0.14 | 93 | 1015.3 |
| 20260831205003 | 60 | 236 | 1.0 | 4.0 | 0.00 | 0.14 | 0.14 | 92 | 1015.2 |
| 20260831204503 | 60 | 230 | 2.0 | 4.0 | 0.00 | 0.14 | 0.14 | 92 | 1015.2 |
| 20260831204006 | 60 | 224 | 2.0 | 4.0 | 0.00 | 0.14 | 0.14 | 92 | 1015.1 |
| 20260831203504 | 60 | 214 | 2.0 | 5.0 | 0.00 | 0.14 | 0.14 | 92 | 1015.0 |
| 20260831203004 | 60 | 218 | 2.0 | 5.0 | 0.00 | 0.14 | 0.14 | 92 | 1015.1 |
| 20260831202505 | 60 | 229 | 2.0 | 4.0 | 0.00 | 0.14 | 0.14 | 92 | 1015.0 |
| 20260831202003 | 60 | 226 | 1.0 | 4.0 | 0.00 | 0.14 | 0.14 | 91 | 1015.0 |
| 20260831201504 | 60 | 223 | 1.0 | 4.0 | 0.00 | 0.14 | 0.14 | 91 | 1014.9 |
| 20260831201005 | 61 | 227 | 2.0 | 5.0 | 0.00 | 0.14 | 0.14 | 91 | 1014.9 |
| 20260831200503 | 61 | 229 | 2.0 | 5.0 | 0.00 | 0.14 | 0.14 | 91 | 1014.9 |
| 20260831200004 | 61 | 234 | 2.0 | 5.0 | 0.00 | 0.14 | 0.14 | 90 | 1014.7 |
| 20260831195503 | 61 | 233 | 2.0 | 5.0 | 0.01 | 0.14 | 0.14 | 90 | 1014.6 |
| 20260831195003 | 62 | 234 | 2.0 | 6.0 | 0.02 | 0.14 | 0.14 | 90 | 1014.6 |
| 20260831194503 | 62 | 235 | 3.0 | 8.0 | 0.03 | 0.14 | 0.14 | 90 | 1014.6 |
| 20260831194005 | 62 | 232 | 2.0 | 8.0 | 0.03 | 0.14 | 0.14 | 90 | 1014.5 |
| 20260831193503 | 62 | 245 | 2.0 | 6.0 | 0.03 | 0.14 | 0.14 | 90 | 1014.4 |
| 20260831193219 | 62 | 243 | 3.0 | 7.0 | 0.03 | 0.14 | 0.14 | 90 | 1014.3 |
| 20260831192504 | 62 | 241 | 3.0 | 8.0 | 0.03 | 0.14 | 0.14 | 89 | 1014.3 |
| 20260831192005 | 62 | 249 | 3.0 | 8.0 | 0.03 | 0.14 | 0.14 | 89 | 1014.3 |
| 20260831191505 | 62 | 259 | 3.0 | 8.0 | 0.03 | 0.14 | 0.14 | 89 | 1014.4 |
| 20260831191005 | 63 | 264 | 3.0 | 8.0 | 0.03 | 0.14 | 0.14 | 88 | 1014.3 |
| 20260831190505 | 63 | 267 | 3.0 | 11.0 | 0.03 | 0.14 | 0.14 | 87 | 1014.1 |
| 20260831190005 | 63 | 275 | 6.0 | 14.0 | 0.03 | 0.14 | 0.14 | 86 | 1014.1 |
| 20260831185505 | 64 | 274 | 6.0 | 14.0 | 0.02 | 0.13 | 0.13 | 84 | 1014.1 |
| 20260831185003 | 65 | 267 | 5.0 | 14.0 | 0.02 | 0.13 | 0.13 | 81 | 1014.0 |
| 20260831184506 | 65 | 266 | 4.0 | 9.0 | 0.00 | 0.11 | 0.11 | 79 | 1013.7 |
| 20260831184003 | 65 | 264 | 4.0 | 12.0 | 0.00 | 0.11 | 0.11 | 78 | 1013.7 |
| 20260831183505 | 65 | 265 | 5.0 | 16.0 | 0.00 | 0.11 | 0.11 | 77 | 1013.6 |
| 20260831183003 | 65 | 261 | 5.0 | 16.0 | 0.00 | 0.11 | 0.11 | 77 | 1013.4 |
| 20260831182503 | 65 | 257 | 3.0 | 9.0 | 0.00 | 0.12 | 0.11 | 77 | 1013.3 |
| 20260831182008 | 65 | 252 | 3.0 | 10.0 | 0.00 | 0.12 | 0.11 | 77 | 1013.3 |
| 20260831181505 | 66 | 243 | 4.0 | 10.0 | 0.00 | 0.12 | 0.11 | 76 | 1013.2 |
| 20260831181005 | 66 | 246 | 3.0 | 9.0 | 0.00 | 0.12 | 0.11 | 76 | 1013.0 |
| 20260831180503 | 66 | 258 | 4.0 | 9.0 | 0.00 | 0.12 | 0.11 | 76 | 1013.0 |
| 20260831180005 | 66 | 254 | 4.0 | 10.0 | 0.00 | 0.12 | 0.11 | 75 | 1012.9 |
| 20260831175505 | 66 | 254 | 5.0 | 13.0 | 0.00 | 0.12 | 0.11 | 74 | 1012.8 |
| 20260831175003 | 66 | 262 | 6.0 | 13.0 | 0.00 | 0.12 | 0.11 | 74 | 1012.7 |
| 20260831174503 | 67 | 261 | 6.0 | 13.0 | 0.00 | 0.12 | 0.11 | 73 | 1012.6 |
| 20260831174003 | 67 | 268 | 6.0 | 13.0 | 0.00 | 0.12 | 0.11 | 72 | 1012.5 |
| 20260831173503 | 67 | 274 | 7.0 | 13.0 | 0.00 | 0.12 | 0.11 | 72 | 1012.4 |
| 20260831173004 | 67 | 274 | 7.0 | 14.0 | 0.00 | 0.12 | 0.11 | 71 | 1012.3 |
| 20260831172503 | 67 | 269 | 6.0 | 14.0 | 0.00 | 0.12 | 0.11 | 72 | 1012.2 |
| 20260831172003 | 67 | 258 | 4.0 | 10.0 | 0.00 | 0.12 | 0.11 | 73 | 1012.1 |
| 20260831171503 | 67 | 259 | 4.0 | 9.0 | 0.00 | 0.12 | 0.11 | 73 | 1012.0 |
| 20260831171004 | 67 | 266 | 5.0 | 14.0 | 0.00 | 0.12 | 0.11 | 73 | 1012.1 |
| 20260831170503 | 67 | 257 | 6.0 | 16.0 | 0.00 | 0.12 | 0.11 | 73 | 1012.0 |
| 20260831170005 | 67 | 250 | 5.0 | 16.0 | 0.00 | 0.12 | 0.11 | 73 | 1011.9 |
| 20260831165505 | 67 | 259 | 5.0 | 14.0 | 0.00 | 0.12 | 0.11 | 72 | 1012.0 |
| 20260831165220 | 67 | 255 | 6.0 | 14.0 | 0.00 | 0.12 | 0.11 | 72 | 1011.9 |
| 20260831164503 | 68 | 244 | 8.0 | 19.0 | 0.00 | 0.12 | 0.11 | 70 | 1011.7 |
| 20260831164003 | 68 | 244 | 6.0 | 14.0 | 0.00 | 0.12 | 0.11 | 71 | 1011.6 |
| 20260831163504 | 68 | 242 | 7.0 | 15.0 | 0.00 | 0.12 | 0.11 | 70 | 1011.6 |
| 20260831163003 | 68 | 249 | 7.0 | 15.0 | 0.00 | 0.12 | 0.11 | 71 | 1011.5 |
| 20260831162503 | 68 | 264 | 5.0 | 12.0 | 0.00 | 0.12 | 0.11 | 72 | 1011.4 |
| 20260831162003 | 68 | 259 | 6.0 | 16.0 | 0.00 | 0.12 | 0.11 | 73 | 1011.5 |
| 20260831161503 | 67 | 268 | 7.0 | 16.0 | 0.00 | 0.12 | 0.11 | 72 | 1011.5 |
| 20260831161003 | 67 | 274 | 7.0 | 16.0 | 0.00 | 0.12 | 0.11 | 73 | 1011.3 |
| 20260831160506 | 67 | 269 | 7.0 | 15.0 | 0.00 | 0.12 | 0.11 | 73 | 1011.4 |
| 20260831160004 | 67 | 272 | 7.0 | 15.0 | 0.00 | 0.12 | 0.11 | 73 | 1011.4 |
| 20260831155503 | 67 | 270 | 7.0 | 16.0 | 0.00 | 0.12 | 0.11 | 73 | 1011.4 |
| 20260831155005 | 67 | 270 | 8.0 | 18.0 | 0.00 | 0.12 | 0.11 | 73 | 1011.4 |
| 20260831154503 | 67 | 273 | 9.0 | 18.0 | 0.00 | 0.12 | 0.11 | 73 | 1011.2 |
| 20260831154217 | 67 | 272 | 9.0 | 18.0 | 0.00 | 0.12 | 0.11 | 73 | 1011.3 |
| 20260831153505 | 67 | 266 | 7.0 | 14.0 | 0.00 | 0.12 | 0.11 | 72 | 1011.2 |
| 20260831153003 | 67 | 260 | 8.0 | 17.0 | 0.00 | 0.12 | 0.11 | 73 | 1011.1 |
| 20260831152505 | 67 | 248 | 8.0 | 17.0 | 0.00 | 0.12 | 0.11 | 74 | 1011.0 |
| 20260831152003 | 67 | 224 | 6.0 | 14.0 | 0.00 | 0.12 | 0.11 | 78 | 1010.8 |
| 20260831151503 | 67 | 176 | 5.0 | 10.0 | 0.00 | 0.12 | 0.11 | 82 | 1010.8 |
| 20260831151005 | 67 | 181 | 4.0 | 10.0 | 0.00 | 0.12 | 0.11 | 83 | 1010.7 |
| 20260831150503 | 67 | 218 | 4.0 | 10.0 | 0.00 | 0.12 | 0.11 | 86 | 1010.7 |
| 20260831150003 | 66 | 201 | 4.0 | 10.0 | 0.00 | 0.12 | 0.11 | 85 | 1010.7 |
| 20260831145503 | 66 | 187 | 4.0 | 11.0 | 0.00 | 0.12 | 0.11 | 85 | 1010.7 |
| 20260831145004 | 66 | 183 | 4.0 | 11.0 | 0.00 | 0.12 | 0.11 | 84 | 1010.6 |
| 20260831144505 | 66 | 198 | 4.0 | 10.0 | 0.00 | 0.12 | 0.11 | 85 | 1010.6 |
| 20260831144217 | 66 | 193 | 5.0 | 10.0 | 0.00 | 0.12 | 0.11 | 85 | 1010.5 |
| 20260831143505 | 66 | 198 | 4.0 | 8.0 | 0.01 | 0.12 | 0.11 | 85 | 1010.2 |
| 20260831143005 | 66 | 188 | 5.0 | 12.0 | 0.03 | 0.12 | 0.11 | 88 | 1010.3 |
| 20260831142506 | 65 | 196 | 6.0 | 12.0 | 0.03 | 0.12 | 0.11 | 87 | 1010.2 |
| 20260831142003 | 65 | 202 | 5.0 | 12.0 | 0.06 | 0.12 | 0.11 | 89 | 1010.0 |
| 20260831141505 | 64 | 183 | 5.0 | 12.0 | 0.06 | 0.12 | 0.11 | 90 | 1010.0 |
| 20260831141003 | 63 | 172 | 5.0 | 11.0 | 0.06 | 0.12 | 0.11 | 92 | 1010.0 |
| 20260831140503 | 62 | 181 | 4.0 | 10.0 | 0.06 | 0.12 | 0.11 | 92 | 1010.0 |
| 20260831140005 | 62 | 211 | 3.0 | 10.0 | 0.06 | 0.12 | 0.11 | 91 | 1010.1 |
| 20260831135504 | 62 | 212 | 3.0 | 9.0 | 0.06 | 0.12 | 0.11 | 90 | 1010.1 |
| 20260831135005 | 62 | 204 | 4.0 | 9.0 | 0.06 | 0.12 | 0.11 | 90 | 1010.3 |
| 20260831134503 | 62 | 212 | 4.0 | 13.0 | 0.06 | 0.12 | 0.11 | 89 | 1010.2 |
| 20260831134005 | 62 | 223 | 5.0 | 13.0 | 0.06 | 0.12 | 0.11 | 88 | 1010.3 |
| 20260831133505 | 62 | 244 | 6.0 | 15.0 | 0.05 | 0.11 | 0.10 | 87 | 1010.3 |
| 20260831133005 | 62 | 273 | 8.0 | 18.0 | 0.02 | 0.09 | 0.08 | 84 | 1010.4 |
| 20260831132717 | 63 | 281 | 9.0 | 18.0 | 0.02 | 0.09 | 0.08 | 83 | 1010.3 |
| 20260831132004 | 64 | 286 | 9.0 | 19.0 | 0.00 | 0.06 | 0.06 | 75 | 1010.1 |
| 20260831131503 | 65 | 276 | 8.0 | 19.0 | 0.00 | 0.06 | 0.06 | 73 | 1010.0 |
| 20260831131218 | 66 | 272 | 8.0 | 16.0 | 0.00 | 0.06 | 0.06 | 73 | 1009.9 |
| 20260831130503 | 68 | 280 | 8.0 | 20.0 | 0.00 | 0.06 | 0.06 | 68 | 1010.0 |
| 20260831130003 | 70 | 249 | 6.0 | 18.0 | 0.00 | 0.06 | 0.06 | 64 | 1009.7 |
| 20260831125504 | 71 | 236 | 6.0 | 18.0 | 0.00 | 0.06 | 0.06 | 64 | 1009.3 |
| 20260831125003 | 71 | 220 | 7.0 | 23.0 | 0.00 | 0.06 | 0.06 | 64 | 1009.2 |
| 20260831124717 | 71 | 216 | 8.0 | 23.0 | 0.00 | 0.06 | 0.06 | 63 | 1009.1 |
| 20260831124005 | 72 | 226 | 7.0 | 21.0 | 0.00 | 0.07 | 0.06 | 63 | 1008.9 |
| 20260831123717 | 71 | 229 | 7.0 | 21.0 | 0.00 | 0.07 | 0.06 | 64 | 1008.8 |
| 20260831123005 | 71 | 225 | 7.0 | 16.0 | 0.00 | 0.07 | 0.06 | 64 | 1008.9 |
| 20260831122503 | 71 | 218 | 8.0 | 15.0 | 0.00 | 0.07 | 0.06 | 62 | 1008.8 |
| 20260831122218 | 71 | 216 | 7.0 | 15.0 | 0.00 | 0.07 | 0.06 | 62 | 1008.8 |
| 20260831121505 | 72 | 210 | 7.0 | 15.0 | 0.00 | 0.07 | 0.06 | 63 | 1008.8 |
| 20260831121005 | 71 | 210 | 7.0 | 16.0 | 0.00 | 0.07 | 0.06 | 64 | 1008.7 |
| 20260831120503 | 70 | 212 | 7.0 | 16.0 | 0.00 | 0.07 | 0.06 | 65 | 1008.8 |
| 20260831120003 | 71 | 209 | 7.0 | 22.0 | 0.00 | 0.07 | 0.06 | 65 | 1008.9 |
| 20260831115505 | 71 | 223 | 8.0 | 22.0 | 0.00 | 0.07 | 0.06 | 64 | 1008.7 |
| 20260831115005 | 71 | 215 | 8.0 | 18.0 | 0.00 | 0.07 | 0.06 | 66 | 1008.7 |
| 20260831114505 | 71 | 200 | 8.0 | 18.0 | 0.00 | 0.07 | 0.06 | 67 | 1008.6 |
| 20260831114003 | 71 | 189 | 8.0 | 18.0 | 0.00 | 0.07 | 0.06 | 67 | 1008.6 |
| 20260831113503 | 71 | 195 | 9.0 | 20.0 | 0.00 | 0.07 | 0.06 | 68 | 1008.5 |
| 20260831113003 | 70 | 212 | 8.0 | 20.0 | 0.00 | 0.07 | 0.06 | 67 | 1008.6 |
| 20260831112503 | 70 | 212 | 8.0 | 20.0 | 0.00 | 0.07 | 0.06 | 70 | 1008.6 |
| 20260831112003 | 70 | 216 | 8.0 | 20.0 | 0.02 | 0.07 | 0.06 | 68 | 1008.5 |
| 20260831111505 | 70 | 221 | 6.0 | 17.0 | 0.02 | 0.07 | 0.06 | 74 | 1008.5 |
| 20260831111217 | 69 | 218 | 6.0 | 16.0 | 0.02 | 0.07 | 0.06 | 76 | 1008.6 |
| 20260831110503 | 69 | 205 | 8.0 | 19.0 | 0.02 | 0.07 | 0.06 | 76 | 1008.5 |
| 20260831110006 | 68 | 191 | 8.0 | 18.0 | 0.02 | 0.07 | 0.06 | 79 | 1008.5 |
| 20260831105505 | 67 | 184 | 8.0 | 18.0 | 0.02 | 0.07 | 0.06 | 79 | 1008.4 |
| 20260831105217 | 67 | 188 | 8.0 | 18.0 | 0.02 | 0.07 | 0.06 | 79 | 1008.3 |
| 20260831104503 | 67 | 190 | 7.0 | 16.0 | 0.02 | 0.07 | 0.06 | 82 | 1008.3 |
| 20260831104006 | 66 | 180 | 6.0 | 15.0 | 0.02 | 0.07 | 0.06 | 82 | 1008.3 |
| 20260831103505 | 66 | 192 | 6.0 | 13.0 | 0.02 | 0.07 | 0.06 | 83 | 1008.5 |
| 20260831103005 | 66 | 209 | 4.0 | 11.0 | 0.02 | 0.07 | 0.06 | 83 | 1008.6 |
| 20260831102503 | 66 | 200 | 3.0 | 11.0 | 0.02 | 0.07 | 0.06 | 82 | 1008.4 |
| 20260831102005 | 66 | 200 | 4.0 | 11.0 | 0.00 | 0.05 | 0.03 | 82 | 1008.6 |
| 20260831101504 | 66 | 190 | 4.0 | 12.0 | 0.00 | 0.05 | 0.03 | 83 | 1008.8 |
| 20260831101005 | 66 | 186 | 4.0 | 12.0 | 0.00 | 0.05 | 0.03 | 81 | 1009.0 |
| 20260831100503 | 66 | 194 | 6.0 | 15.0 | 0.00 | 0.05 | 0.03 | 80 | 1008.9 |
| 20260831100005 | 67 | 192 | 6.0 | 15.0 | 0.00 | 0.05 | 0.03 | 79 | 1008.9 |
| 20260831095503 | 67 | 186 | 7.0 | 21.0 | 0.00 | 0.05 | 0.03 | 79 | 1009.0 |
| 20260831095003 | 67 | 179 | 8.0 | 21.0 | 0.00 | 0.05 | 0.03 | 77 | 1008.7 |
| 20260831094718 | 68 | 173 | 8.0 | 21.0 | 0.00 | 0.05 | 0.03 | 78 | 1008.8 |
| 20260831094003 | 68 | 172 | 8.0 | 17.0 | 0.03 | 0.05 | 0.03 | 80 | 1008.8 |
| 20260831093503 | 67 | 173 | 7.0 | 18.0 | 0.03 | 0.05 | 0.03 | 84 | 1008.7 |
| 20260831093005 | 66 | 183 | 7.0 | 18.0 | 0.03 | 0.05 | 0.03 | 86 | 1008.8 |
| 20260831092507 | 66 | 185 | 7.0 | 21.0 | 0.03 | 0.05 | 0.03 | 87 | 1008.8 |
| 20260831092005 | 66 | 199 | 5.0 | 21.0 | 0.03 | 0.05 | 0.03 | 90 | 1009.0 |
| 20260831091503 | 65 | 215 | 3.0 | 11.0 | 0.03 | 0.05 | 0.03 | 92 | 1009.0 |
| 20260831091005 | 65 | 204 | 3.0 | 8.0 | 0.03 | 0.05 | 0.03 | 91 | 1009.0 |
| 20260831090503 | 65 | 203 | 4.0 | 12.0 | 0.03 | 0.05 | 0.03 | 90 | 1009.1 |
| 20260831090003 | 65 | 200 | 4.0 | 12.0 | 0.03 | 0.05 | 0.03 | 89 | 1009.0 |
| 20260831085504 | 65 | 194 | 3.0 | 9.0 | 0.03 | 0.05 | 0.03 | 88 | 1008.9 |
| 20260831085003 | 65 | 185 | 3.0 | 11.0 | 0.03 | 0.05 | 0.03 | 87 | 1008.9 |
| 20260831084503 | 65 | 178 | 4.0 | 11.0 | 0.03 | 0.05 | 0.03 | 85 | 1008.9 |
| 20260831084003 | 66 | 172 | 5.0 | 14.0 | 0.00 | 0.02 | 0.00 | 83 | 1009.0 |
| 20260831083505 | 66 | 173 | 5.0 | 14.0 | 0.00 | 0.02 | 0.00 | 82 | 1008.9 |
| 20260831083004 | 66 | 173 | 6.0 | 18.0 | 0.00 | 0.02 | 0.00 | 82 | 1008.9 |
| 20260831082503 | 66 | 187 | 6.0 | 18.0 | 0.00 | 0.02 | 0.00 | 82 | 1008.8 |
| 20260831082005 | 66 | 200 | 6.0 | 16.0 | 0.00 | 0.02 | 0.00 | 82 | 1008.9 |
| 20260831081504 | 66 | 183 | 7.0 | 16.0 | 0.00 | 0.02 | 0.00 | 82 | 1008.9 |
| 20260831081218 | 66 | 181 | 7.0 | 19.0 | 0.00 | 0.02 | 0.00 | 82 | 1009.0 |
| 20260831080503 | 66 | 180 | 7.0 | 19.0 | 0.00 | 0.02 | 0.00 | 81 | 1008.9 |
| 20260831080003 | 66 | 175 | 6.0 | 17.0 | 0.00 | 0.02 | 0.00 | 82 | 1008.9 |
| 20260831075505 | 66 | 187 | 6.0 | 14.0 | 0.00 | 0.02 | 0.00 | 82 | 1009.1 |
| 20260831075218 | 66 | 187 | 6.0 | 13.0 | 0.00 | 0.02 | 0.00 | 83 | 1009.0 |
| 20260831074504 | 66 | 182 | 5.0 | 12.0 | 0.00 | 0.02 | 0.00 | 84 | 1008.9 |
| 20260831074006 | 65 | 185 | 5.0 | 12.0 | 0.00 | 0.02 | 0.00 | 85 | 1008.9 |
| 20260831073504 | 65 | 183 | 6.0 | 16.0 | 0.00 | 0.02 | 0.00 | 84 | 1009.0 |
| 20260831073003 | 65 | 181 | 7.0 | 22.0 | 0.00 | 0.02 | 0.00 | 83 | 1009.1 |
| 20260831072717 | 65 | 182 | 8.0 | 22.0 | 0.00 | 0.02 | 0.00 | 83 | 1009.1 |
| 20260831072003 | 66 | 181 | 6.0 | 17.0 | 0.00 | 0.02 | 0.00 | 83 | 1009.2 |
| 20260831071505 | 66 | 172 | 6.0 | 15.0 | 0.00 | 0.02 | 0.00 | 85 | 1009.1 |
| 20260831071218 | 66 | 166 | 6.0 | 18.0 | 0.00 | 0.02 | 0.00 | 85 | 1009.1 |
| 20260831070505 | 65 | 175 | 6.0 | 18.0 | 0.00 | 0.02 | 0.00 | 85 | 1009.1 |
| 20260831070003 | 65 | 187 | 5.0 | 14.0 | 0.00 | 0.02 | 0.00 | 85 | 1009.1 |